User: anonymous
Location: Unspecified
(0.0000°N, 0.0000°E)
Time: 11:37:51
(UTC+00:00)
Language:

OPTUS 1C - Orbit

View from above orbital plane
View from above orbital plane
View from above satellite
View from above satellite

Ground track
Ground track

The orbit data is extracted from the following two-line orbital elements,

1 27831U 03028B   14244.90630501 -.00000159  00000-0  00000+0 0  1945
2 27831 000.0274 213.2894 0004297 305.3527 304.6390 01.00272923 41143
Epoch (UTC): 01 September 2014 21:45:04
Eccentricity: 0.0004297
inclination: 0.0274°
perigee height: 35768 km
apogee height: 35804 km
right ascension of ascending node: 213.2894°
argument of perigee: 305.3527°
revolutions per day: 1.00272923
mean anomaly at epoch: 304.6390°
orbit number at epoch: 4114

The dashed part of the orbit path shows where the satellite is in the earth's shadow,  

DLR